Location: Ladysmith
(45.4630°N, 91.1040°W)
Time: 08:31:55
(UTC-05:00)

Amateur Radio Satellites - All Passes

Search period start: 06 July 2015 08:01
Search period end: 07 July 2015 08:01
Location: Ladysmith, 45.4630°N, 91.1040°W

Satellite Date Start Highest point End Downlink Frequencies (MHz)
Time Altitude Azimuth
DANDE 06 Jul 08:08:18 08:15:04 57° 98° (E) 08:20:12 436.750
AUBIESAT-1 06 Jul 08:08:21 08:11:23 33° 64° (ENE) 08:14:37 437.475
ISS 06 Jul 08:12:08 08:15:16 47° 145° (SE) 08:18:25 145.825
O/OREOS (USA 219) 06 Jul 08:20:10 08:24:29 47° 299° (WNW) 08:28:50 437.305
CUTE-I 06 Jul 08:22:57 08:27:59 41° 292° (WNW) 08:32:58 437.470
STRAND 1 06 Jul 08:23:19 08:27:23 23° 268° (W) 08:31:22 437.568
VERMONT LUNAR 06 Jul 08:27:58 08:30:40 27° 170° (S) 08:33:24 437.305
AO-7 06 Jul 08:28:29 08:32:12 13° 321° (NW) 08:35:34 29.400- 29.500
GOMX 1 06 Jul 08:30:18 08:33:18 19° 91° (E) 08:36:22 467.674
CUSAT 1 06 Jul 08:34:16 08:40:22 67° 281° (WNW) 08:44:55 437.405
M-CUBED/EXP-1 PRIME 06 Jul 08:44:15 08:47:34 73° 253° (WSW) 08:51:04 437.505
CUTE 1.7 + AOD 2 06 Jul 08:45:26 08:48:06 16° 89° (E) 08:50:54 437.475
HO-68 06 Jul 08:45:51 08:51:36 26° 91° (E) 08:57:31 435.675
CANX-2 06 Jul 08:48:47 08:51:52 20° 91° (E) 08:55:05 2200.000
Cosmos 2504 06 Jul 08:49:40 08:51:43 11° 308° (NW) 08:53:19 435.465 / 435.565
Cubesat XI-IV 06 Jul 08:58:25 09:02:34 23° 298° (WNW) 09:06:35 437.490
BRITE-PL 06 Jul 09:04:05 09:08:25 76° 102° (ESE) 09:12:34 437.365/2234.400
DOVE 4 06 Jul 09:04:31 09:08:04 27° 94° (E) 09:11:41 437.250
GONETS M04 06 Jul 09:06:17 09:14:49 60° 92° (E) 09:23:23
PHONESAT 2.4 06 Jul 09:13:32 09:16:12 21° 161° (SSE) 09:18:54 2401.200-2431.200
BEESAT 3 06 Jul 09:26:32 09:28:53 14° 327° (NNW) 09:31:08 437.485
SEEDS 06 Jul 09:29:38 09:33:37 38° 97° (E) 09:37:37 437.485
AIST 2 06 Jul 09:32:50 09:36:49 37° 314° (NW) 09:40:49 435.215
CINEMA 3 06 Jul 09:35:43 09:39:17 27° 95° (E) 09:42:58 145.822/145.860
AAUSAT CUBESAT 2 06 Jul 09:35:54 09:39:38 30° 95° (E) 09:43:24 437.432
DELFI C3 06 Jul 09:40:22 09:40:55 10° 86° (E) 09:41:42 145.870
BEESAT 2 06 Jul 09:41:48 09:44:00 14° 328° (NNW) 09:46:05 435.950
AUBIESAT-1 06 Jul 09:44:08 09:46:22 16° 264° (W) 09:48:34 437.475
ANTELSAT 06 Jul 09:47:24 09:50:40 22° 66° (ENE) 09:54:00 437.575/2403.000
ISS 06 Jul 09:48:40 09:51:44 37° 343° (NNW) 09:54:48 145.825
DANDE 06 Jul 09:53:08 09:58:21 24° 290° (WNW) 10:02:28 436.750
Cosmos 2499 06 Jul 09:54:17 09:59:23 23° 82° (E) 10:04:48 435.465 / 435.565
POLYITAN 1 06 Jul 09:54:41 09:56:12 12° 61° (ENE) 09:57:55 437.675
TIGRISAT 06 Jul 09:58:29 10:02:03 27° 67° (ENE) 10:05:41 435.000
COMPASS 1 06 Jul 10:03:28 10:07:42 72° 102° (ESE) 10:11:55 437.405
VERMONT LUNAR 06 Jul 10:04:23 10:07:12 30° 186° (S) 10:10:01 437.305
ZACube-1 06 Jul 10:04:48 10:07:37 18° 91° (E) 10:10:36 437.345
RS-15 06 Jul 10:06:53 10:18:10 55° 41° (NE) 10:29:59 29.354- 29.394
GOMX 1 06 Jul 10:07:46 10:11:42 38° 290° (WNW) 10:15:31 467.674
Oscar 11 06 Jul 10:08:28 10:12:22 32° 95° (E) 10:16:17 145.826/435.025
CUBEBUG 2 06 Jul 10:10:36 10:14:23 32° 96° (E) 10:18:16 437.445
CUTE 1.7 + AOD 2 06 Jul 10:20:11 10:24:21 50° 288° (WNW) 10:28:30 437.475
QB50P2 06 Jul 10:22:05 10:25:21 22° 66° (ENE) 10:28:41 145.880/145.840
POPSAT HIP 1 06 Jul 10:22:20 10:25:32 22° 66° (ENE) 10:28:50 437.405
CANX-2 06 Jul 10:23:57 10:28:01 42° 289° (WNW) 10:32:03 2200.000
HO-68 06 Jul 10:32:51 10:39:56 66° 291° (WNW) 10:47:00 435.675
UNISAT 6 06 Jul 10:38:18 10:42:33 72° 75° (ENE) 10:46:49 437.425
FUNcube-1 06 Jul 10:39:13 10:43:11 38° 97° (E) 10:47:14 145.935
DOVE 4 06 Jul 10:42:18 10:45:51 27° 292° (WNW) 10:49:21 437.250
BRITE-PL 06 Jul 10:44:40 10:46:22 12° 300° (WNW) 10:47:52 437.365/2234.400
PHONESAT 2.4 06 Jul 10:50:35 10:53:45 35° 178° (S) 10:56:57 2401.200-2431.200
UWE-3 06 Jul 10:57:08 11:01:22 80° 102° (ESE) 11:05:42 435.000/436.395/437.385
QB50P1 06 Jul 11:00:04 11:04:11 52° 72° (ENE) 11:08:19 145.935-145.965
GONETS M04 06 Jul 11:04:24 11:12:16 34° 294° (WNW) 11:19:57
SEEDS 06 Jul 11:05:52 11:09:13 22° 294° (WNW) 11:12:28 437.485
50 SAT 06 Jul 11:06:13 11:08:43 17° 91° (E) 11:11:21 437.505
AAUSAT CUBESAT 2 06 Jul 11:11:36 11:15:10 26° 292° (WNW) 11:18:40 437.432
DELFI C3 06 Jul 11:12:30 11:16:35 73° 285° (WNW) 11:20:38 145.870
CINEMA 3 06 Jul 11:12:54 11:16:30 28° 291° (WNW) 11:20:06 145.822/145.860
NANOSAT C BR1 06 Jul 11:13:20 11:17:33 72° 75° (ENE) 11:21:46 145.865
ESTCUBE 1 06 Jul 11:14:51 11:17:00 14° 87° (E) 11:19:22 437.505/2401.250
DUCHIFAT 1 06 Jul 11:19:32 11:23:46 82° 74° (ENE) 11:28:00 145.980
VELOX 1 06 Jul 11:22:57 11:26:27 23° 93° (E) 11:30:00 145.980
ANTELSAT 06 Jul 11:23:16 11:27:16 38° 263° (W) 11:31:15 437.575/2403.000
DX 1 06 Jul 11:24:06 11:28:13 41° 98° (E) 11:32:19 434.975-435.025
ISS 06 Jul 11:25:52 11:28:41 26° 3° (N) 11:31:30 145.825
BUGSAT 1 06 Jul 11:27:18 11:31:29 67° 74° (ENE) 11:35:39 437.445
POLYITAN 1 06 Jul 11:27:19 11:31:34 79° 257° (WSW) 11:35:49 437.675
TIGRISAT 06 Jul 11:34:58 11:38:46 30° 265° (W) 11:42:30 435.000
ZACube-1 06 Jul 11:40:12 11:44:15 46° 288° (WNW) 11:48:21 437.345
COMPASS 1 06 Jul 11:40:49 11:42:52 13° 298° (WNW) 11:44:44 437.405
VERMONT LUNAR 06 Jul 11:41:41 11:43:36 15° 202° (SSW) 11:45:29 437.305
UKube-1 06 Jul 11:41:44 11:46:01 58° 101° (E) 11:50:16 .
HUMSAT D 06 Jul 11:41:49 11:46:00 83° 103° (ESE) 11:50:13 437.325/437.525
Oscar 11 06 Jul 11:44:46 11:48:28 27° 293° (WNW) 11:52:06 145.826/435.025
Cosmos 2499 06 Jul 11:44:53 11:51:53 67° 282° (WNW) 11:59:05 435.465 / 435.565
CUBEBUG 2 06 Jul 11:47:29 11:51:00 25° 292° (WNW) 11:54:30 437.445
QB50P2 06 Jul 11:57:05 12:01:03 37° 263° (W) 12:05:00 145.880/145.840
POPSAT HIP 1 06 Jul 11:57:14 12:01:13 38° 263° (W) 12:05:11 437.405
AISAT 06 Jul 12:10:09 12:14:35 74° 102° (ESE) 12:18:58 437.250
FUNcube-1 06 Jul 12:16:03 12:19:20 22° 294° (WNW) 12:22:33 145.935
UNISAT 6 06 Jul 12:18:31 12:19:57 11° 273° (W) 12:21:08 437.425
RS-15 06 Jul 12:19:35 12:30:57 58° 245° (WSW) 12:42:37 29.354- 29.394
CUBEBUG 1 06 Jul 12:21:23 12:25:41 53° 100° (E) 12:29:55 437.445
HO-68 06 Jul 12:22:28 12:26:30 16° 311° (NW) 12:30:14 435.675
PHONESAT 2.4 06 Jul 12:28:25 12:31:22 26° 194° (SSW) 12:34:19 2401.200-2431.200
UWE-3 06 Jul 12:35:48 12:37:23 12° 299° (WNW) 12:38:48 435.000/436.395/437.385
QB50P1 06 Jul 12:37:45 12:40:24 16° 270° (W) 12:42:54 145.935-145.965
50 SAT 06 Jul 12:39:52 12:43:35 41° 288° (WNW) 12:47:16 437.505
YUBILEINY 06 Jul 12:41:55 12:47:13 18° 54° (NE) 12:52:55 435.215
ESTCUBE 1 06 Jul 12:49:53 12:54:26 68° 286° (WNW) 12:58:55 437.505/2401.250
NANOSAT C BR1 06 Jul 12:52:28 12:53:58 11° 273° (W) 12:55:12 145.865
VELOX 1 06 Jul 12:59:03 13:03:08 37° 291° (WNW) 13:07:11 145.980
DX 1 06 Jul 13:00:52 13:04:14 22° 295° (WNW) 13:07:30 434.975-435.025
ISS 06 Jul 13:02:20 13:05:31 53° 23° (NNE) 13:08:43 145.825
BUGSAT 1 06 Jul 13:05:39 13:07:27 12° 272° (W) 13:09:03 437.445
SPROUT 06 Jul 13:15:09 13:19:23 60° 100° (E) 13:23:36 437.525
UKube-1 06 Jul 13:19:00 13:21:44 16° 298° (WNW) 13:24:20 .
Oscar 19 06 Jul 13:19:12 13:24:14 61° 72° (ENE) 13:29:19 437.125/150
HUMSAT D 06 Jul 13:19:53 13:21:11 11° 299° (WNW) 13:22:18 437.325/437.525
ITAMSAT 1 06 Jul 13:36:21 13:40:41 28° 64° (ENE) 13:45:07 435.822/435.867
BEESAT 06 Jul 13:38:55 13:41:03 13° 87° (E) 13:43:26 436.000
Gurwin Techsat 1B 06 Jul 13:42:33 13:47:10 32° 66° (ENE) 13:51:54 435.225
Cosmos 2499 06 Jul 13:43:45 13:46:54 13° 308° (NW) 13:49:41 435.465 / 435.565
TISAT 1 06 Jul 13:48:13 13:52:25 89° 103° (ESE) 13:56:36 437.305
AISAT 06 Jul 13:48:21 13:50:38 14° 299° (WNW) 13:52:45 437.250
AO-7 06 Jul 13:52:50 13:58:16 20° 46° (NE) 14:03:59 29.400- 29.500
SWISSCUBE 06 Jul 13:53:50 13:57:19 20° 91° (E) 14:00:56 437.505
CUBEBUG 1 06 Jul 13:58:43 14:01:40 18° 297° (WNW) 14:04:29 437.445
ITUPSAT 1 06 Jul 14:00:09 14:03:44 21° 91° (E) 14:07:26 437.325
PCSat 06 Jul 14:22:35 14:24:34 12° 104° (ESE) 14:26:51 145.827
BEESAT 3 06 Jul 14:25:31 14:28:29 19° 38° (NE) 14:31:29 437.485
JAS-2 06 Jul 14:34:32 14:38:45 26° 62° (ENE) 14:43:18 435.910
RS-15 06 Jul 14:36:40 14:41:13 12° 264° (W) 14:44:37 29.354- 29.394
YUBILEINY 06 Jul 14:37:11 14:45:58 74° 78° (ENE) 14:54:47 435.215
ISS 06 Jul 14:38:59 14:41:46 26° 221° (SW) 14:44:32 145.825
BEESAT 2 06 Jul 14:40:46 14:43:56 21° 39° (NE) 14:47:06 435.950
SPROUT 06 Jul 14:52:29 14:55:03 15° 297° (WNW) 14:57:29 437.525
AIST 1 06 Jul 14:58:18 15:01:28 20° 88° (E) 15:04:46
Oscar 19 06 Jul 15:00:27 15:04:04 19° 270° (W) 15:07:32 437.125/150
Cosmos 2491 06 Jul 15:01:45 15:10:04 50° 89° (E) 15:18:28 435.465 / 435.565
BEESAT 06 Jul 15:14:44 15:19:33 76° 286° (WNW) 15:24:21 436.000
ITAMSAT 1 06 Jul 15:15:01 15:20:01 44° 262° (W) 15:25:01 435.822/435.867
Gurwin Techsat 1B 06 Jul 15:22:10 15:27:06 38° 264° (W) 15:32:02 435.225
TISAT 1 06 Jul 15:26:39 15:27:35 10° 300° (WNW) 15:28:18 437.305
SWISSCUBE 06 Jul 15:30:50 15:35:30 50° 289° (WNW) 15:40:07 437.505
ITUPSAT 1 06 Jul 15:37:17 15:41:56 48° 290° (WNW) 15:46:32 437.325
AO-7 06 Jul 15:41:31 15:49:48 72° 67° (ENE) 15:58:10 29.400- 29.500
KKS-1 06 Jul 15:52:34 15:56:53 49° 100° (E) 16:01:12 437.445
HORYU 2 06 Jul 15:54:08 15:58:32 77° 75° (ENE) 16:02:59 437.375
PCSat 06 Jul 16:01:49 16:07:14 83° 122° (ESE) 16:12:42 145.827
BEESAT 3 06 Jul 16:02:48 16:06:50 63° 238° (WSW) 16:10:48 437.485
AIST 2 06 Jul 16:13:53 16:17:52 38° 46° (NE) 16:21:47 435.215
BEESAT 2 06 Jul 16:18:17 16:22:19 56° 239° (WSW) 16:26:15 435.950
JAS-2 06 Jul 16:18:42 16:23:40 45° 263° (W) 16:28:56 435.910
MOZHAYETS 4 06 Jul 16:27:33 16:29:59 14° 87° (E) 16:32:37
Cosmos 2504 06 Jul 16:32:55 16:40:06 48° 74° (ENE) 16:47:51 435.465 / 435.565
AIST 1 06 Jul 16:34:43 16:38:53 39° 285° (WNW) 16:43:03
YUBILEINY 06 Jul 16:35:08 16:42:04 26° 279° (W) 16:48:44 435.215
STARS 06 Jul 16:38:51 16:43:16 88° 285° (WNW) 16:47:38 437.465
O/OREOS (USA 219) 06 Jul 16:48:29 16:52:56 55° 62° (ENE) 16:57:24 437.305
SO-50 06 Jul 16:52:52 16:57:34 65° 122° (ESE) 17:02:27 436.795
BEESAT 06 Jul 16:55:14 16:56:39 11° 303° (WNW) 16:57:50 436.000
Cosmos 2491 06 Jul 16:58:56 17:07:11 41° 291° (WNW) 17:15:21 435.465 / 435.565
Cubesat XI-IV 06 Jul 17:04:01 17:07:35 19° 60° (ENE) 17:11:20 437.490
KKS-1 06 Jul 17:30:02 17:33:12 19° 296° (WNW) 17:36:15 437.445
HORYU 2 06 Jul 17:34:17 17:35:49 11° 273° (W) 17:37:07 437.375
AO-7 06 Jul 17:36:25 17:43:25 28° 268° (W) 17:50:13 29.400- 29.500
PCSat 06 Jul 17:47:11 17:51:22 22° 322° (NW) 17:55:28 145.827
AIST 2 06 Jul 17:52:46 17:56:17 26° 245° (WSW) 17:59:42 435.215
MOZHAYETS 4 06 Jul 18:03:07 18:07:45 67° 286° (WNW) 18:12:22
CUTE-I 06 Jul 18:06:58 18:12:13 59° 71° (ENE) 18:17:32 437.470
STARS 06 Jul 18:17:49 18:19:05 11° 301° (WNW) 18:20:07 437.465
Cosmos 2504 06 Jul 18:25:24 18:32:12 37° 272° (W) 18:39:20 435.465 / 435.565
O/OREOS (USA 219) 06 Jul 18:28:58 18:31:58 17° 259° (WSW) 18:34:49 437.305
SO-50 06 Jul 18:34:34 18:38:34 25° 323° (NW) 18:42:35 436.795
CUBESAT XI-V 06 Jul 18:36:46 18:40:40 26° 93° (E) 18:44:37 437.345
BRITE-PL 06 Jul 18:40:14 18:43:21 17° 63° (ENE) 18:46:33 437.365/2234.400
Cubesat XI-IV 06 Jul 18:41:49 18:47:11 72° 257° (WSW) 18:52:36 437.490
DANDE 06 Jul 18:48:32 18:50:56 25° 71° (ENE) 18:53:11 436.750
STRAND 1 06 Jul 18:52:48 18:55:20 14° 87° (E) 18:58:06 437.568
CUSAT 1 06 Jul 19:09:48 19:12:27 72° 259° (W) 19:15:03 437.405
GONETS M04 06 Jul 19:13:55 19:21:32 33° 65° (ENE) 19:29:16
HO-68 06 Jul 19:17:24 19:23:03 27° 57° (ENE) 19:28:52 435.675
PRISM 06 Jul 19:24:28 19:27:45 22° 93° (E) 19:31:05 437.425
GOMX 1 06 Jul 19:39:49 19:44:14 32° 69° (ENE) 19:48:26 467.674
CUTE 1.7 + AOD 2 06 Jul 19:40:55 19:43:30 16° 64° (ENE) 19:46:14 437.475
Cosmos 2499 06 Jul 19:42:54 19:43:53 10° 49° (NE) 19:45:24 435.465 / 435.565
CANX-2 06 Jul 19:44:13 19:47:12 19° 65° (ENE) 19:50:17 2200.000
CUTE-I 06 Jul 19:48:43 19:52:45 21° 270° (W) 19:56:38 437.470
DOVE 4 06 Jul 20:11:50 20:16:15 40° 71° (ENE) 20:20:29 437.250
CUBESAT XI-V 06 Jul 20:13:54 20:18:13 36° 291° (WNW) 20:22:27 437.345
BRITE-PL 06 Jul 20:16:02 20:21:27 77° 257° (WSW) 20:26:29 437.365/2234.400
SEEDS 06 Jul 20:23:48 20:27:35 35° 70° (ENE) 20:31:27 437.485
AAUSAT CUBESAT 2 06 Jul 20:28:53 20:32:24 28° 68° (ENE) 20:35:59 437.432
STRAND 1 06 Jul 20:30:04 20:35:16 79° 286° (WNW) 20:40:23 437.568
CINEMA 3 06 Jul 20:39:35 20:43:34 34° 70° (ENE) 20:47:28 145.822/145.860
COMPASS 1 06 Jul 20:56:32 21:00:38 63° 74° (ENE) 21:04:47 437.405
PRISM 06 Jul 20:59:27 21:03:18 35° 291° (WNW) 21:07:06 437.425
HO-68 06 Jul 21:03:07 21:10:16 71° 256° (WSW) 21:17:26 435.675
ZACube-1 06 Jul 21:03:21 21:06:14 19° 65° (ENE) 21:09:13 437.345
Oscar 11 06 Jul 21:05:24 21:09:13 32° 69° (ENE) 21:13:06 145.826/435.025
GONETS M04 06 Jul 21:10:28 21:18:59 61° 268° (W) 21:27:26
CUBEBUG 2 06 Jul 21:11:08 21:14:58 35° 70° (ENE) 21:18:48 437.445
CUTE 1.7 + AOD 2 06 Jul 21:14:55 21:19:02 53° 261° (W) 21:23:13 437.475
GOMX 1 06 Jul 21:17:49 21:22:21 32° 264° (W) 21:26:36 467.674
CANX-2 06 Jul 21:18:49 21:22:51 43° 262° (W) 21:26:55 2200.000
AUBIESAT-1 06 Jul 21:20:15 21:23:39 23° 99° (E) 21:27:18 437.475
Cosmos 2499 06 Jul 21:31:44 21:39:19 51° 74° (ENE) 21:47:31 435.465 / 435.565
AISAT 06 Jul 21:37:07 21:38:18 11° 59° (ENE) 21:39:41 437.250
FUNcube-1 06 Jul 21:37:12 21:41:05 39° 71° (ENE) 21:44:59 145.935
DOVE 4 06 Jul 21:50:17 21:54:10 23° 267° (W) 21:57:47 437.250
50 SAT 06 Jul 21:53:21 21:55:14 14° 63° (ENE) 21:57:15 437.505
UWE-3 06 Jul 21:56:23 22:00:36 85° 76° (ENE) 22:04:47 435.000/436.395/437.385
M-CUBED/EXP-1 PRIME 06 Jul 21:56:26 22:00:40 60° 106° (ESE) 22:05:11 437.505
SEEDS 06 Jul 22:00:10 22:03:30 22° 268° (W) 22:06:46 437.485
BRITE-PL 06 Jul 22:00:20 22:00:46 10° 276° (W) 22:00:51 437.365/2234.400
DELFI C3 06 Jul 22:01:28 22:05:28 89° 78° (ENE) 22:09:32 145.870
AAUSAT CUBESAT 2 06 Jul 22:04:22 22:07:58 28° 266° (W) 22:11:33 437.432
STRAND 1 06 Jul 22:11:26 22:13:42 13° 303° (WNW) 22:15:45 437.568
ESTCUBE 1 06 Jul 22:16:31 22:19:29 18° 63° (ENE) 22:22:35 437.505/2401.250
CINEMA 3 06 Jul 22:17:13 22:20:52 24° 266° (W) 22:24:21 145.822/145.860
DX 1 06 Jul 22:21:35 22:25:47 48° 71° (ENE) 22:30:02 434.975-435.025
VELOX 1 06 Jul 22:22:33 22:26:20 28° 67° (ENE) 22:30:12 145.980
UNISAT 6 06 Jul 22:29:27 22:31:23 13° 88° (E) 22:33:32 437.425
COMPASS 1 06 Jul 22:34:55 22:36:48 12° 273° (W) 22:38:30 437.405
HUMSAT D 06 Jul 22:35:30 22:39:35 77° 76° (ENE) 22:43:42 437.325/437.525
ZACube-1 06 Jul 22:38:20 22:42:21 43° 262° (W) 22:46:19 437.345
UKube-1 06 Jul 22:38:23 22:42:41 66° 73° (ENE) 22:47:01 .
Oscar 11 06 Jul 22:41:51 22:45:28 25° 267° (W) 22:49:01 145.826/435.025
CUBEBUG 2 06 Jul 22:48:24 22:51:48 22° 267° (W) 22:55:03 437.445
AUBIESAT-1 06 Jul 22:54:29 22:58:29 41° 294° (WNW) 23:02:44 437.475
HO-68 06 Jul 22:56:18 22:59:29 13° 277° (W) 23:02:09 435.675
DUCHIFAT 1 06 Jul 23:04:27 23:05:28 11° 87° (E) 23:06:43 145.980
PCSat 06 Jul 23:04:51 23:09:01 22° 39° (NE) 23:13:17 145.827
AISAT 06 Jul 23:09:44 23:14:13 86° 76° (ENE) 23:18:43 437.250
TISAT 1 06 Jul 23:10:38 23:11:11 10° 60° (ENE) 23:11:57 437.305
GONETS M04 06 Jul 23:11:25 23:14:08 11° 288° (WNW) 23:16:10
POLYITAN 1 06 Jul 23:11:54 23:14:09 14° 89° (E) 23:16:33 437.675
ANTELSAT 06 Jul 23:12:26 23:16:28 35° 97° (E) 23:20:37 437.575/2403.000
FUNcube-1 06 Jul 23:14:31 23:17:37 19° 268° (W) 23:20:35 145.935
CUBEBUG 1 06 Jul 23:19:19 23:23:41 58° 73° (ENE) 23:28:04 437.445
TIGRISAT 06 Jul 23:23:29 23:27:41 44° 98° (E) 23:31:58 435.000
Cosmos 2499 06 Jul 23:25:13 23:32:21 38° 272° (W) 23:39:49 435.465 / 435.565
50 SAT 06 Jul 23:25:42 23:29:27 54° 260° (W) 23:33:14 437.505
M-CUBED/EXP-1 PRIME 06 Jul 23:32:17 23:35:09 18° 301° (WNW) 23:38:02 437.505
QB50P2 06 Jul 23:40:06 23:43:46 29° 95° (E) 23:47:28 145.880/145.840
POPSAT HIP 1 06 Jul 23:40:10 23:43:46 28° 94° (E) 23:47:25 437.405
SO-50 06 Jul 23:42:25 23:46:16 22° 35° (NE) 23:50:10 436.795
ESTCUBE 1 06 Jul 23:51:28 23:55:57 57° 260° (W) 00:00:28 437.505/2401.250
VELOX 1 06 Jul 23:58:49 00:02:50 32° 264° (W) 00:06:50 145.980
DX 1 06 Jul 23:59:15 00:02:21 18° 269° (W) 00:05:18 434.975-435.025
UNISAT 6 07 Jul 00:04:18 00:08:40 69° 287° (WNW) 00:13:09 437.425
SPROUT 07 Jul 00:11:10 00:15:25 61° 73° (ENE) 00:19:40 437.525
UKube-1 07 Jul 00:17:12 00:19:21 13° 272° (W) 00:21:17 .
QB50P1 07 Jul 00:18:31 00:22:44 73° 102° (ESE) 00:26:55 145.935-145.965
NANOSAT C BR1 07 Jul 00:31:39 00:35:53 82° 285° (WNW) 00:40:05 145.865
DUCHIFAT 1 07 Jul 00:37:40 00:41:52 73° 286° (WNW) 00:46:02 145.980
RS-15 07 Jul 00:38:09 00:44:52 20° 100° (E) 00:52:22 29.354- 29.394
TISAT 1 07 Jul 00:42:05 00:46:20 88° 77° (ENE) 00:50:35 437.305
BUGSAT 1 07 Jul 00:42:41 00:46:46 86° 102° (ESE) 00:50:47 437.445
POLYITAN 1 07 Jul 00:46:19 00:50:27 56° 287° (WNW) 00:54:34 437.675
BEESAT 07 Jul 00:47:05 00:50:34 21° 63° (ENE) 00:54:10 436.000
PCSat 07 Jul 00:47:40 00:53:07 79° 239° (WSW) 00:58:32 145.827
ANTELSAT 07 Jul 00:49:29 00:53:08 25° 293° (WNW) 00:56:47 437.575/2403.000
AISAT 07 Jul 00:50:50 00:51:31 10° 274° (W) 00:51:55 437.250
CUBEBUG 1 07 Jul 00:57:47 01:00:28 15° 271° (W) 01:02:59 437.445
TIGRISAT 07 Jul 01:00:53 01:04:12 21° 295° (WNW) 01:07:28 435.000
SWISSCUBE 07 Jul 01:02:20 01:06:28 30° 67° (ENE) 01:10:41 437.505
ITUPSAT 1 07 Jul 01:08:55 01:13:07 32° 67° (ENE) 01:17:23 437.325
Cosmos 2491 07 Jul 01:09:24 01:16:33 28° 62° (ENE) 01:23:52 435.465 / 435.565
POPSAT HIP 1 07 Jul 01:15:59 01:19:38 29° 292° (WNW) 01:23:13 437.405
QB50P2 07 Jul 01:16:00 01:19:38 28° 292° (WNW) 01:23:12 145.880/145.840
SO-50 07 Jul 01:22:26 01:27:25 79° 235° (SW) 01:32:19 436.795
Oscar 19 07 Jul 01:29:31 01:32:51 18° 89° (E) 01:36:23 437.125/150
YUBILEINY 07 Jul 01:48:53 01:53:30 17° 76° (ENE) 01:58:37 435.215
SPROUT 07 Jul 01:49:38 01:51:57 14° 272° (W) 01:54:06 437.525
QB50P1 07 Jul 01:56:09 01:58:05 13° 299° (WNW) 01:59:51 145.935-145.965
STARS 07 Jul 02:04:08 02:06:07 13° 61° (ENE) 02:08:17 437.465
BUGSAT 1 07 Jul 02:20:58 02:21:38 10° 300° (WNW) 02:22:05 437.445
BEESAT 07 Jul 02:23:25 02:28:05 52° 260° (W) 02:32:47 436.000
PCSat 07 Jul 02:33:47 02:35:45 12° 256° (WSW) 02:37:24 145.827
AIST 1 07 Jul 02:39:17 02:43:37 62° 78° (ENE) 02:47:54
SWISSCUBE 07 Jul 02:39:54 02:44:16 34° 264° (W) 02:48:37 437.505
RS-15 07 Jul 02:44:41 02:55:33 79° 121° (ESE) 03:06:52 29.354- 29.394
ITUPSAT 1 07 Jul 02:46:39 02:50:59 32° 264° (W) 02:55:18 437.325
KKS-1 07 Jul 02:52:38 02:57:01 60° 73° (ENE) 03:01:25 437.445
Cosmos 2491 07 Jul 03:05:40 03:14:24 73° 265° (W) 03:23:02 435.465 / 435.565
SO-50 07 Jul 03:05:41 03:07:14 11° 252° (WSW) 03:08:30 436.795
Oscar 19 07 Jul 03:07:39 03:12:44 63° 287° (WNW) 03:17:48 437.125/150
JAS-2 07 Jul 03:23:43 03:29:00 24° 90° (E) 03:34:55 435.910
ITAMSAT 1 07 Jul 03:25:18 03:30:27 56° 100° (E) 03:35:34 435.822/435.867
MOZHAYETS 4 07 Jul 03:31:39 03:34:44 19° 63° (ENE) 03:37:58
Gurwin Techsat 1B 07 Jul 03:35:30 03:40:51 74° 102° (ESE) 03:46:10 435.225
STARS 07 Jul 03:37:38 03:42:02 76° 257° (WSW) 03:46:26 437.465
YUBILEINY 07 Jul 03:40:21 03:49:01 78° 96° (E) 03:57:45 435.215
AO-7 07 Jul 03:42:04 03:47:32 19° 87° (E) 03:53:23 29.400- 29.500
HORYU 2 07 Jul 03:44:57 03:46:47 13° 88° (E) 03:48:52 437.375
AIST 1 07 Jul 04:18:43 04:20:47 13° 275° (W) 04:22:38
KKS-1 07 Jul 04:31:28 04:34:07 15° 271° (W) 04:36:34 437.445
RS-15 07 Jul 04:58:49 05:09:09 42° 329° (NNW) 05:19:48 29.354- 29.394
Cosmos 2491 07 Jul 05:05:11 05:09:50 15° 285° (WNW) 05:13:55 435.465 / 435.565
ITAMSAT 1 07 Jul 05:05:35 05:09:36 22° 298° (WNW) 05:13:29 435.822/435.867
MOZHAYETS 4 07 Jul 05:07:05 05:11:34 55° 260° (W) 05:16:08
Cosmos 2504 07 Jul 05:07:32 05:13:18 30° 86° (E) 05:19:16 435.465 / 435.565
JAS-2 07 Jul 05:07:55 05:14:34 71° 287° (WNW) 05:21:58 435.910
Gurwin Techsat 1B 07 Jul 05:16:42 05:20:18 18° 300° (WNW) 05:23:44 435.225
HORYU 2 07 Jul 05:19:32 05:24:00 71° 286° (WNW) 05:28:28 437.375
AO-7 07 Jul 05:33:13 05:41:40 87° 108° (ESE) 05:50:02 29.400- 29.500
YUBILEINY 07 Jul 05:39:54 05:46:59 26° 299° (WNW) 05:53:49 435.215
CUBESAT XI-V 07 Jul 05:42:06 05:46:17 33° 68° (ENE) 05:50:33 437.345
BEESAT 3 07 Jul 05:59:18 06:01:10 13° 111° (ESE) 06:03:13 437.485
STRAND 1 07 Jul 06:10:10 06:14:23 27° 64° (ENE) 06:18:42 437.568
BEESAT 2 07 Jul 06:15:10 06:17:32 15° 112° (ESE) 06:20:04 435.950
PRISM 07 Jul 06:16:41 06:19:58 23° 66° (ENE) 06:23:21 437.425
CUTE-I 07 Jul 06:22:43 06:26:28 20° 90° (E) 06:30:22 437.470
CUSAT 1 07 Jul 06:38:05 06:40:22 13° 92° (E) 06:42:43 437.405
JAS-2 07 Jul 06:54:59 06:58:50 16° 304° (NW) 07:02:36 435.910
Cubesat XI-IV 07 Jul 06:57:02 07:02:02 39° 97° (E) 07:07:02 437.490
Cosmos 2504 07 Jul 06:58:33 07:05:14 49° 286° (WNW) 07:11:59 435.465 / 435.565
O/OREOS (USA 219) 07 Jul 07:03:03 07:07:12 40° 108° (ESE) 07:11:26 437.305
RS-15 07 Jul 07:16:06 07:25:30 29° 3° (N) 07:35:19 29.354- 29.394
ISS 07 Jul 07:19:04 07:21:49 26° 140° (SE) 07:24:38 145.825
CUBESAT XI-V 07 Jul 07:19:36 07:23:45 29° 266° (W) 07:27:52 437.345
AO-7 07 Jul 07:27:00 07:33:37 26° 309° (NW) 07:40:00 29.400- 29.500
VERMONT LUNAR 07 Jul 07:28:31 07:30:59 22° 165° (SSE) 07:33:30 437.305
BEESAT 3 07 Jul 07:34:33 07:38:38 70° 307° (NW) 07:42:45 437.485
STRAND 1 07 Jul 07:48:28 07:53:24 44° 262° (W) 07:58:20 437.568
BEESAT 2 07 Jul 07:51:06 07:55:11 61° 309° (NW) 07:59:18 435.950
PRISM 07 Jul 07:51:23 07:55:16 35° 263° (W) 07:59:08 437.425
AIST 2 07 Jul 07:51:53 07:55:48 38° 118° (ESE) 07:59:48 435.215
